Other Public Products
Issued by NWS Charleston, SC

Home | Current Version | Previous Version | Text Only | Print | Product List | Glossary On
Versions: 1 2 3 4 5 6 7 8 9 10 11 12 13 14 15 16 17 18 19 20 21 22 23 24 25 26 27 28 29 30 31 32 33 34 35 36 37 38 39 40 41 42 43 44 45 46 47 48 49 50
000
FPUS82 KCHS 180027
OPUCHS

TEST...KCHS/KSAV Gateway Observations...TEST
National Weather Service Charleston SC
700 PM EST TUE JAN 17 2017

NOTE: "fair" indicates few or no clouds below 12,000 feet with no
significant weather and/or obstructions to visibility.

SCZ050-WAZ558-NCZ071-TXZ119-213-PAZ071-DCZ001-FLZ074-172-MI076-
NYZ176-178-MAZ016-IL014-TNZ027-NJZ106-GAZ044-MD014-180100-
...Gateway Observations for Charleston International...

CITY           SKY/WX    TMP DP  RH WIND       PRES   REMARKS
Chas Airport   CLOUDY    65  58  78 SW9       30.19R
6HR MIN TEMP:  65; 6HR MAX TEMP:  77;

Seattle        RAIN      43  42  97 SE7       29.56F FOG
6HR MIN TEMP:  41; 6HR MAX TEMP:  47; 6HR PCP:  0.50;

Charlotte      CLOUDY    59  54  83 S6        30.12S
6HR MIN TEMP:  59; 6HR MAX TEMP:  64;

Dallas DFW     LGT RAIN  51  40  65 N3        30.13S
6HR MIN TEMP:  49; 6HR MAX TEMP:  51; 6HR PCP: TRACE;

Dallas Love    TSTM      50  43  77 W5        30.16R
6HR MIN TEMP:  49; 6HR MAX TEMP:  52; 6HR PCP:  0.02;

Philladelphia  LGT RAIN  43  42  97 E5        30.01F FOG
6HR MIN TEMP:  42; 6HR MAX TEMP:  45; 6HR PCP:  0.03;

Wash National  CLOUDY    51  51 100 S3        29.96S
6HR MIN TEMP:  46; 6HR MAX TEMP:  51; 6HR PCP:  0.12;

Baltimore      DRIZZLE   44  44 100 NE3       29.97S FOG
6HR MIN TEMP:  43; 6HR MAX TEMP:  45; 6HR PCP:  0.11;

Miami          PTCLDY    76  61  59 SE7       30.21R
6HR MIN TEMP:  75; 6HR MAX TEMP:  81;

Detroit        CLOUDY    43  40  89 W13       29.87R
6HR MIN TEMP:  43; 6HR MAX TEMP:  48;

Newark         LGT RAIN  40  39  97 NE7       30.05F FOG     WCI  35
6HR MIN TEMP:  39; 6HR MAX TEMP:  41; 6HR PCP:  0.28;

Laguardia      RAIN      40  37  89 NE9       30.06F FOG     WCI  34
6HR MIN TEMP:  40; 6HR MAX TEMP:  43; 6HR PCP:  0.12;

J F K          RAIN      40  37  89 E9        30.07F FOG     WCI  34
6HR MIN TEMP:  40; 6HR MAX TEMP:  41; 6HR PCP:  0.21;

Boston Logan   LGT RAIN  39  35  86 E17       30.18S WCI  30
6HR MIN TEMP:  39; 6HR MAX TEMP:  42; 6HR PCP:  0.02;

Ft. Lauderdale MOCLDY    74  62  66 SE6       30.21R
6HR MIN TEMP:  74; 6HR MAX TEMP:  79;

Chicago O`Hare CLOUDY    36  34  92 W12       29.95R FOG     WCI  28
6HR MIN TEMP:  36; 6HR MAX TEMP:  39;

Chicago Midway DRIZZLE   35  34  96 W10       29.96R FOG     WCI  27
6HR MIN TEMP:  35; 6HR MAX TEMP:  37; 6HR PCP: TRACE;

Houston Bush   FOG       59  58  96 NE9       30.06R VSB 1
6HR MIN TEMP:  59; 6HR MAX TEMP:  60; 6HR PCP:  0.17;

Houston Hobby  CLOUDY    63  60  90 NE9       30.04R
6HR MIN TEMP:  62; 6HR MAX TEMP:  66; 6HR PCP: TRACE;

Nashville      CLOUDY    60  50  69 W8        30.10R
6HR MIN TEMP:  59; 6HR MAX TEMP:  63;

Atlanta        MOCLDY    68  56  65 W5        30.17R
6HR MIN TEMP:  68; 6HR MAX TEMP:  75;


$$

GAZ044-118-TXZ119-213-NCZ071-DCZ001-MDZ014-506-PAZ021-071-NJZ106-
NYZ176-178-MAZ106-OHZ011-021-055-MIZ076-KYZ091-ILZ014-INZ047-
MNZ060-180100-
...Gateway Observations for Savannah International...

CITY           SKY/WX    TMP DP  RH WIND       PRES   REMARKS
Savannah Arpt  MOCLDY    65  58  78 S8        30.20R
6HR MIN TEMP:  65; 6HR MAX TEMP:  76;

Atlanta        MOCLDY    68  56  65 W5        30.17R
6HR MIN TEMP:  68; 6HR MAX TEMP:  75;

Charlotte      CLOUDY    59  54  83 S6        30.12S
6HR MIN TEMP:  59; 6HR MAX TEMP:  64;

Dallas DFW     LGT RAIN  51  40  65 N3        30.13S
6HR MIN TEMP:  49; 6HR MAX TEMP:  51; 6HR PCP: TRACE;

Houston Bush   FOG       59  58  96 NE9       30.06R VSB 1
6HR MIN TEMP:  59; 6HR MAX TEMP:  60; 6HR PCP:  0.17;

Wash National  CLOUDY    51  51 100 S3        29.96S
6HR MIN TEMP:  46; 6HR MAX TEMP:  51; 6HR PCP:  0.12;

Wash Dulles    CLOUDY    51  49  92 CALM      29.95S FOG
6HR MIN TEMP:  45; 6HR MAX TEMP:  51; 6HR PCP:  0.12;

Baltimore      DRIZZLE   44  44 100 NE3       29.97S FOG
6HR MIN TEMP:  43; 6HR MAX TEMP:  45; 6HR PCP:  0.11;

Philadelphia   LGT RAIN  43  42  97 E5        30.01F FOG
6HR MIN TEMP:  42; 6HR MAX TEMP:  45; 6HR PCP:  0.03;

Newark         LGT RAIN  40  39  97 NE7       30.05F FOG     WCI  35
6HR MIN TEMP:  39; 6HR MAX TEMP:  41; 6HR PCP:  0.28;

Laguardia      RAIN      40  37  89 NE9       30.06F FOG     WCI  34
6HR MIN TEMP:  40; 6HR MAX TEMP:  43; 6HR PCP:  0.12;

J F K          RAIN      40  37  89 E9        30.07F FOG     WCI  34
6HR MIN TEMP:  40; 6HR MAX TEMP:  41; 6HR PCP:  0.21;

Boston         LGT RAIN  39  35  86 E17       30.18S WCI  30
6HR MIN TEMP:  39; 6HR MAX TEMP:  42; 6HR PCP:  0.02;

Pittsburg      CLOUDY    55  52  89 W7        29.86R
6HR MIN TEMP:  54; 6HR MAX TEMP:  62; 6HR PCP: TRACE;

Akron          MOCLDY    62  44  51 W12       29.87R
6HR MIN TEMP:  58; 6HR MAX TEMP:  67;

Cleveland      CLOUDY    52  44  74 W12       29.89R
6HR MIN TEMP:  52; 6HR MAX TEMP:  61;

Cincinnati     CLOUDY    49  42  77 W15G22    30.00R
6HR MIN TEMP:  49; 6HR MAX TEMP:  59;

Columbus         N/A     52  45  78 W14       29.94R
Detroit        CLOUDY    43  40  89 W13       29.87R
6HR MIN TEMP:  43; 6HR MAX TEMP:  48;

Chicago O`Hare CLOUDY    36  34  92 W12       29.95R FOG     WCI  28
6HR MIN TEMP:  36; 6HR MAX TEMP:  39;

Minneapolis    CLOUDY    33  30  88 W8        29.99S WCI  26
6HR MIN TEMP:  33; 6HR MAX TEMP:  35;

Indianapolis   DRIZZLE   43  41  93 W13       30.02R
6HR MIN TEMP:  43; 6HR MAX TEMP:  47; 6HR PCP: TRACE;


$$




USA.gov is the U.S. government's official web portal to all federal, state and local government web resources and services.